Tracking 30070 objects as of 15-Jan-2025
HD Live streaming from Space Station
objects crossing your sky now

FLOCK 4Q 22

Track FLOCK 4Q 22 now!
10-day predictions
FLOCK 4Q 22 is classified as:


NORAD ID: 58306
Int'l Code: 2023-174BC
Perigee: 478.1 km
Apogee: 490.1 km
Inclination: 97.4 °
Period: 94.1 minutes
Semi major axis: 6855 km
RCS: Unknown
Launch date: November 11, 2023
Source: United States (US)
Launch site: AIR FORCE WESTERN TEST RANGE (AFWTR)
Your satellite tracking list
Your tracking list is empty




NASA's NSSDC Master Catalog

Two Line Element Set (TLE):
1 58306U 23174BC  25015.20230953  .00017464  00000-0  60976-3 0  9999
2 58306  97.4305  94.3779 0008772 191.9018 168.2016 15.29615091 66010
Source of the keplerian elements: AFSPC